This demonstration page uses our WeatherBlox Daily Observations layout. Learn more.

39.29038, -76.61219

Hourly Observations for April 12, 2018

Temp ( °F °C ) Dew Point ( °F °C ) Humidity (%) Winds ( mph kmh ) Pressure ( in mb ) Visibility ( mi km ) Precip ( " mm )
12:54 am 00:54 undefined 47 8.3 34 1.1 61 61 undefined N/A 30.1 1019 N/A 0 0
1:54 am 01:54 undefined 47 8.3 33 0.6 59 59 undefined N/A 30.09 1019 N/A 0 0
2:54 am 02:54 undefined 46 7.8 32 0 58 58 undefined N/A 30.07 1018 N/A 0 0
3:54 am 03:54 undefined 46 7.8 33 0.6 61 61 undefined N/A 30.07 1018 N/A 0 0
4:54 am 04:54 undefined 46 7.8 33 0.6 61 61 undefined N/A 30.08 1019 N/A 0 0
5:54 am 05:54 undefined 46 7.8 34 1.1 63 63 undefined N/A 30.08 1019 N/A 0 0
6:54 am 06:54 undefined 48 8.9 34 1.1 58 58 undefined N/A 30.1 1019 N/A 0 0
7:54 am 07:54 undefined 49 9.4 35 1.7 59 59 undefined N/A 30.11 1020 N/A 0 0
8:54 am 08:54 undefined 53 11.7 37 2.8 55 55 undefined N/A 30.11 1020 N/A 0 0
9:54 am 09:54 undefined 58 14.4 37 2.8 46 46 undefined N/A 30.11 1020 N/A 0 0
10:54 am 10:54 undefined 61 16.1 38 3.3 43 43 undefined N/A 30.13 1020 N/A 0 0
11:54 am 11:54 undefined 65 18.3 37 2.8 36 36 undefined N/A 30.08 1019 N/A 0 0
12:54 pm 12:54 undefined 68 20 38 3.3 33 33 undefined N/A 30.02 1017 N/A 0 0
1:54 pm 13:54 undefined 73 22.8 35 1.7 25 25 undefined N/A 29.96 1015 N/A 0 0
2:54 pm 14:54 undefined 75 23.9 34 1.1 22 22 undefined N/A 29.91 1013 N/A 0 0
3:54 pm 15:54 undefined 76 24.4 34 1.1 22 22 undefined N/A 29.85 1011 N/A 0 0
4:54 pm 16:54 undefined 78 25.6 36 2.2 22 22 undefined N/A 29.82 1010 N/A 0 0
5:54 pm 17:54 undefined 77 25 37 2.8 24 24 undefined N/A 29.8 1009 N/A 0 0
6:54 pm 18:54 undefined 76 24.4 39 3.9 26 26 undefined N/A 29.8 1009 N/A 0 0
7:54 pm 19:54 undefined 75 23.9 40 4.4 28 28 undefined N/A 29.81 1009 N/A 0 0
8:54 pm 20:54 undefined 74 23.3 40 4.4 29 29 undefined N/A 29.83 1010 N/A 0 0
9:54 pm 21:54 undefined 73 22.8 40 4.4 30 30 undefined N/A 29.86 1011 N/A 0 0
10:54 pm 22:54 undefined 72 22.2 41 5 33 33 undefined N/A 29.87 1011 N/A 0 0
11:54 pm 23:54 undefined 70 21.1 41 5 35 35 undefined N/A 29.86 1011 N/A 0 0

Powered by AerisWeather